• In Lithuania
  • List of Countries
  • For 7 days
  • Water Temperature
  • Satellite Maps
  • Weather Map
  • Weather Widgets
  • user-avatar
    Login

    Hourly Weather Adelaide

    Today, 17 December, Sunday

    Time Temperature Precipitation Wind Pressure Humidity
    00:00 +19°C° 0 mm 4 mps 757 mmHg 70%
    01:00 +19°C° 0 mm 4 mps 756 mmHg 70%
    02:00 +19°C° 0 mm 4 mps 756 mmHg 71%
    03:00 +18°C° 0 mm 2 mps 755 mmHg 71%
    04:00 +19°C° 0 mm 2 mps 755 mmHg 67%
    05:00 +20°C° 0 mm 3 mps 756 mmHg 63%
    06:00 +21°C° 0 mm 3 mps 756 mmHg 59%
    07:00 +25°C° 0 mm 3 mps 756 mmHg 50%
    08:00 +27°C° 0 mm 3 mps 755 mmHg 42%
    09:00 +29°C° 0 mm 3 mps 756 mmHg 37%
    10:00 +31°C° 0 mm 3 mps 756 mmHg 33%
    11:00 +34°C° 0 mm 2 mps 755 mmHg 28%
    12:00 +36°C° 0 mm 2 mps 755 mmHg 23%
    13:00 +36°C° 0 mm 2 mps 754 mmHg 22%
    14:00 +37°C° 0 mm 3 mps 754 mmHg 21%
    15:00 +35°C° 0 mm 2 mps 754 mmHg 24%
    16:00 +34°C° 0 mm 2 mps 754 mmHg 25%
    17:00 +32°C° 0 mm 2 mps 754 mmHg 26%
    18:00 +33°C° 0 mm 3 mps 753 mmHg 27%
    19:00 +31°C° 0 mm 3 mps 753 mmHg 27%
    20:00 +31°C° 0 mm 3 mps 753 mmHg 26%
    21:00 +31°C° 0 mm 2 mps 753 mmHg 29%
    22:00 +30°C° 0.2 mm 2 mps 753 mmHg 32%
    23:00 +30°C° 0.2 mm 3 mps 752 mmHg 36%

    Tomorrow, 18 December, Monday

    Time Temperature Precipitation Wind Pressure Humidity
    00:00 +29°C° 0.2 mm 3 mps 752 mmHg 40%
    01:00 +29°C° 0.1 mm 3 mps 752 mmHg 41%
    02:00 +29°C° 0.1 mm 3 mps 752 mmHg 43%
    03:00 +28°C° 0.1 mm 2 mps 751 mmHg 44%
    04:00 +28°C° 0.2 mm 3 mps 751 mmHg 43%
    05:00 +28°C° 0.2 mm 3 mps 752 mmHg 42%
    06:00 +29°C° 0.2 mm 4 mps 752 mmHg 41%
    07:00 +30°C° 0.1 mm 5 mps 752 mmHg 37%
    08:00 +32°C° 0.1 mm 6 mps 751 mmHg 32%
    09:00 +34°C° 0.1 mm 6 mps 751 mmHg 28%
    10:00 +36°C° 0 mm 7 mps 750 mmHg 24%
    11:00 +39°C° 0 mm 8 mps 749 mmHg 20%
    12:00 +42°C° 0 mm 9 mps 749 mmHg 17%
    13:00 +41°C° 0 mm 8 mps 747 mmHg 16%
    14:00 +43°C° 0 mm 8 mps 746 mmHg 15%
    15:00 +44°C° 0 mm 7 mps 745 mmHg 14%
    16:00 +43°C° 0.1 mm 7 mps 744 mmHg 15%
    17:00 +43°C° 0.1 mm 7 mps 743 mmHg 17%
    18:00 +41°C° 0.1 mm 7 mps 742 mmHg 18%
    19:00 +39°C° 0.4 mm 6 mps 743 mmHg 27%
    20:00 +35°C° 0.4 mm 6 mps 743 mmHg 35%
    21:00 +33°C° 0.4 mm 5 mps 743 mmHg 44%
    22:00 +29°C° 1.4 mm 6 mps 744 mmHg 55%
    23:00 +27°C° 1.4 mm 6 mps 745 mmHg 67%

    Day after tomorrow, 19 December, Tuesday

    Time Temperature Precipitation Wind Pressure Humidity
    00:00 +24°C° 1.4 mm 7 mps 747 mmHg 78%
    01:00 +23°C° 1.4 mm 6 mps 746 mmHg 77%
    02:00 +23°C° 1.4 mm 5 mps 746 mmHg 77%
    03:00 +22°C° 1.4 mm 4 mps 746 mmHg 76%
    04:00 +22°C° 0.1 mm 4 mps 746 mmHg 73%
    05:00 +22°C° 0.1 mm 4 mps 746 mmHg 71%
    06:00 +22°C° 0.1 mm 4 mps 746 mmHg 69%
    07:00 +25°C° 0 mm 5 mps 747 mmHg 57%
    08:00 +27°C° 0 mm 6 mps 747 mmHg 46%
    09:00 +28°C° 0 mm 7 mps 747 mmHg 34%
    10:00 +29°C° 0 mm 8 mps 747 mmHg 31%
    11:00 +31°C° 0 mm 9 mps 747 mmHg 28%
    12:00 +32°C° 0 mm 9 mps 747 mmHg 25%
    13:00 +31°C° 0 mm 9 mps 747 mmHg 27%
    14:00 +31°C° 0 mm 9 mps 747 mmHg 29%
    15:00 +29°C° 0 mm 9 mps 747 mmHg 31%
    16:00 +28°C° 0 mm 9 mps 748 mmHg 36%
    17:00 +26°C° 0 mm 8 mps 748 mmHg 42%
    18:00 +24°C° 0 mm 8 mps 749 mmHg 47%
    19:00 +23°C° 0 mm 7 mps 749 mmHg 52%
    20:00 +22°C° 0 mm 7 mps 750 mmHg 56%
    21:00 +21°C° 0 mm 6 mps 751 mmHg 61%
    22:00 +20°C° 0 mm 6 mps 751 mmHg 63%
    23:00 +20°C° 0 mm 5 mps 751 mmHg 65%

    20 December, Wednesday

    Time Temperature Precipitation Wind Pressure Humidity
    00:00 +20°C° 0 mm 5 mps 751 mmHg 68%
    01:00 +19°C° 0 mm 5 mps 751 mmHg 69%
    02:00 +19°C° 0 mm 5 mps 751 mmHg 71%
    03:00 +19°C° 0 mm 4 mps 751 mmHg 73%
    04:00 +19°C° 0.1 mm 5 mps 752 mmHg 72%
    05:00 +19°C° 0.1 mm 5 mps 753 mmHg 71%
    06:00 +19°C° 0.1 mm 6 mps 754 mmHg 70%
    07:00 +20°C° 0.2 mm 6 mps 754 mmHg 67%
    08:00 +21°C° 0.2 mm 6 mps 755 mmHg 63%
    09:00 +21°C° 0.2 mm 6 mps 756 mmHg 59%
    10:00 +22°C° 0 mm 6 mps 756 mmHg 56%
    11:00 +22°C° 0 mm 6 mps 757 mmHg 52%
    12:00 +22°C° 0 mm 6 mps 757 mmHg 49%
    13:00 +22°C° 0 mm 6 mps 757 mmHg 47%
    14:00 +22°C° 0 mm 6 mps 757 mmHg 46%
    15:00 +22°C° 0 mm 6 mps 758 mmHg 44%
    16:00 +21°C° 0 mm 6 mps 758 mmHg 46%
    17:00 +21°C° 0 mm 5 mps 759 mmHg 49%
    18:00 +20°C° 0 mm 5 mps 759 mmHg 51%
    19:00 +19°C° 0 mm 5 mps 760 mmHg 55%
    20:00 +18°C° 0 mm 4 mps 761 mmHg 58%
    21:00 +18°C° 0 mm 4 mps 761 mmHg 62%
    22:00 +17°C° 0 mm 3 mps 761 mmHg 64%
    23:00 +17°C° 0 mm 3 mps 761 mmHg 66%

    21 December, Thursday

    Time Temperature Precipitation Wind Pressure Humidity
    00:00 +17°C° 0 mm 3 mps 761 mmHg 68%
    01:00 +16°C° 0 mm 2 mps 761 mmHg 70%
    02:00 +16°C° 0 mm 2 mps 760 mmHg 72%
    03:00 +16°C° 0 mm 2 mps 760 mmHg 73%
    04:00 +16°C° 0 mm 2 mps 761 mmHg 72%
    05:00 +17°C° 0 mm 2 mps 761 mmHg 71%
    06:00 +17°C° 0 mm 2 mps 761 mmHg 69%
    07:00 +19°C° 0 mm 2 mps 762 mmHg 64%
    08:00 +20°C° 0 mm 2 mps 762 mmHg 58%
    09:00 +21°C° 0 mm 2 mps 762 mmHg 53%
    10:00 +23°C° 0 mm 2 mps 762 mmHg 50%
    11:00 +24°C° 0 mm 3 mps 762 mmHg 46%
    12:00 +26°C° 0 mm 3 mps 761 mmHg 43%
    13:00 +26°C° 0 mm 4 mps 761 mmHg 43%
    14:00 +26°C° 0 mm 4 mps 760 mmHg 42%
    15:00 +26°C° 0 mm 4 mps 759 mmHg 42%
    16:00 +25°C° 0 mm 4 mps 759 mmHg 45%
    17:00 +23°C° 0 mm 4 mps 759 mmHg 49%
    18:00 +22°C° 0 mm 4 mps 759 mmHg 52%
    19:00 +21°C° 0 mm 4 mps 760 mmHg 57%
    20:00 +20°C° 0 mm 4 mps 760 mmHg 62%
    21:00 +19°C° 0 mm 4 mps 760 mmHg 68%
    22:00 +18°C° 0 mm 3 mps 760 mmHg 70%
    23:00 +18°C° 0 mm 3 mps 759 mmHg 72%

    22 December, Friday

    Time Temperature Precipitation Wind Pressure Humidity
    00:00 +17°C° 0 mm 3 mps 759 mmHg 73%
    01:00 +17°C° 0 mm 2 mps 759 mmHg 75%
    02:00 +17°C° 0 mm 2 mps 758 mmHg 76%
    03:00 +16°C° 0 mm 2 mps 758 mmHg 77%
    04:00 +17°C° 0 mm 2 mps 758 mmHg 74%
    05:00 +17°C° 0 mm 2 mps 758 mmHg 71%
    06:00 +19°C° 0 mm 1 mps 758 mmHg 68%
    07:00 +21°C° 0 mm 1 mps 758 mmHg 58%
    08:00 +24°C° 0 mm 1 mps 758 mmHg 48%
    09:00 +26°C° 0 mm 1 mps 758 mmHg 38%
    10:00 +27°C° 0 mm 2 mps 757 mmHg 34%
    11:00 +29°C° 0 mm 2 mps 757 mmHg 30%
    12:00 +30°C° 0 mm 3 mps 756 mmHg 26%
    13:00 +30°C° 0 mm 3 mps 756 mmHg 25%
    14:00 +30°C° 0 mm 4 mps 755 mmHg 25%
    15:00 +32°C° 0 mm 4 mps 755 mmHg 25%
    16:00 +29°C° 0 mm 4 mps 755 mmHg 28%
    17:00 +28°C° 0 mm 4 mps 755 mmHg 31%
    18:00 +27°C° 0 mm 4 mps 755 mmHg 35%
    19:00 +25°C° 0 mm 4 mps 756 mmHg 42%
    20:00 +24°C° 0 mm 3 mps 756 mmHg 49%
    21:00 +21°C° 0 mm 3 mps 756 mmHg 57%
    22:00 +20°C° 0 mm 2 mps 756 mmHg 58%
    23:00 +20°C° 0 mm 2 mps 756 mmHg 60%
    Show more